This is the latest recevied weather packets stored in our database for station/object DB0TV-13. If no packets are shown the sender has not sent any weather packets the latest 10 day(s).
| Time | Temp. | Humidity | Pressure | Rain* | Wind** | Luminosity | Snow |
|---|---|---|---|---|---|---|---|
| 1777654819 | 21.11° C | 35% | 1022.6 hPa | 0 mm | - | 228 W/m² | - |
| 1777654218 | 21.67° C | 36% | 1022.6 hPa | 0 mm | - | 258 W/m² | - |
| 1777653618 | 21.67° C | 34% | 1022.6 hPa | 0 mm | - | 288 W/m² | - |
| 1777653020 | 21.67° C | 34% | 1022.7 hPa | 0 mm | - | 314 W/m² | - |
| 1777652420 | 21.67° C | 34% | 1022.8 hPa | 0 mm | - | 344 W/m² | - |
| 1777651818 | 21.67° C | 34% | 1022.9 hPa | 0 mm | - | 372 W/m² | - |
| 1777651218 | 21.67° C | 34% | 1022.9 hPa | 0 mm | - | 399 W/m² | - |
| 1777650620 | 21.67° C | 33% | 1023.2 hPa | 0 mm | - | 425 W/m² | - |
| 1777650020 | 21.67° C | 33% | 1023.2 hPa | 0 mm | - | 454 W/m² | - |
| 1777649418 | 21.67° C | 34% | 1023.2 hPa | 0 mm | - | 480 W/m² | - |
| 1777648820 | 21.67° C | 32% | 1023.3 hPa | 0 mm | - | 504 W/m² | - |
| 1777648220 | 21.67° C | 32% | 1023.6 hPa | 0 mm | - | 528 W/m² | - |
| 1777647620 | 21.67° C | 34% | 1023.5 hPa | 0 mm | - | 552 W/m² | - |
| 1777647018 | 21.67° C | 32% | 1023.7 hPa | 0 mm | - | 575 W/m² | - |
| 1777646420 | 21.67° C | 32% | 1023.8 hPa | 0 mm | - | 598 W/m² | - |
| 1777645820 | 21.67° C | 33% | 1023.8 hPa | 0 mm | - | 623 W/m² | - |
| 1777645220 | 21.67° C | 33% | 1023.9 hPa | 0 mm | - | 643 W/m² | - |
| 1777644620 | 21.67° C | 32% | 1024 hPa | 0 mm | - | 662 W/m² | - |
| 1777644020 | 21.67° C | 32% | 1024 hPa | 0 mm | - | 680 W/m² | - |
| 1777643420 | 21.67° C | 32% | 1024.1 hPa | 0 mm | - | 695 W/m² | - |
| 1777642820 | 21.67° C | 33% | 1024.2 hPa | 0 mm | - | 713 W/m² | - |
| 1777642220 | 21.67° C | 33% | 1024.5 hPa | 0 mm | - | 731 W/m² | - |
| 1777641620 | 21.67° C | 34% | 1024.6 hPa | 0 mm | - | 747 W/m² | - |
| 1777641020 | 21.11° C | 33% | 1024.6 hPa | 0 mm | - | 763 W/m² | - |
| 1777640420 | 21.11° C | 33% | 1024.8 hPa | 0 mm | - | 773 W/m² | - |
* Rain latest hour (hover to see other rain measurements)
** Current wind speed in m/s (hover to see current wind gust speed)